Total_Precipitation_Accumulation
0.61 0.83 1.09 1.02 0.94 1.00 1.04 1.13 1.15 1.05 0.81 0.81 0.77 0.65 0.60 0.62 0.65 0.64 0.57 0.50 0.48 0.49 0.47 0.44 0.47 0.53 0.55 0.57 0.59 0.58 0.56 0.63 0.66 0.71 0.84 1.05 1.34 1.45 1.55 1.47 1.27 1.20 1.32 1.58
0.69 0.75 0.65 0.59 0.68 0.88 1.02 1.20 1.17 1.04 0.75 0.68 0.67 0.58 0.49 0.50 0.57 0.53 0.51 0.48 0.42 0.43 0.37 0.33 0.35 0.39 0.41 0.45 0.51 0.52 0.51 0.59 0.63 0.68 0.85 1.00 1.16 1.17 1.34 1.47 1.43 1.34 1.34 1.50
0.67 0.62 0.49 0.54 0.68 0.91 1.01 1.03 1.00 0.97 0.79 0.67 0.62 0.63 0.47 0.43 0.47 0.44 0.41 0.41 0.36 0.36 0.35 0.33 0.32 0.32 0.33 0.35 0.36 0.38 0.41 0.48 0.60 0.74 0.93 1.13 1.33 1.42 1.49 1.42 1.50 1.50 1.42 1.47
0.61 0.50 0.48 0.60 0.68 0.75 0.94 0.69 0.63 0.69 0.87 0.91 0.72 0.85 0.56 0.47 0.50 0.45 0.39 0.35 0.33 0.33 0.33 0.38 0.35 0.38 0.35 0.32 0.29 0.31 0.40 0.52 0.71 0.90 1.12 1.36 1.56 1.61 1.51 1.55 1.58 1.46 1.39 1.35
0.55 0.45 0.47 0.59 0.56 0.53 0.62 0.53 0.51 0.58 0.75 0.73 0.55 0.65 0.57 0.46 0.56 0.51 0.44 0.39 0.34 0.32 0.33 0.35 0.34 0.37 0.37 0.34 0.35 0.41 0.60 0.83 1.06 1.27 1.52 1.78 1.76 1.65 1.56 1.56 1.55 1.49 1.49 1.45
0.45 0.37 0.41 0.43 0.42 0.40 0.43 0.50 0.55 0.62 0.77 0.76 0.47 0.54 0.59 0.44 0.47 0.50 0.48 0.41 0.33 0.29 0.35 0.43 0.49 0.57 0.62 0.64 0.77 0.95 1.21 1.39 1.48 1.59 1.73 1.84 1.78 1.79 1.74 1.56 1.49 1.48 1.52 1.58
0.48 0.39 0.32 0.28 0.38 0.38 0.42 0.69 0.99 1.04 1.03 0.75 0.39 0.56 0.62 0.43 0.36 0.37 0.39 0.33 0.28 0.33 0.43 0.57 0.73 0.85 0.97 1.11 1.27 1.41 1.56 1.69 1.64 1.60 1.65 1.69 1.67 1.64 1.63 1.57 1.50 1.44 1.46 1.51
0.54 0.51 0.31 0.24 0.30 0.39 0.42 0.62 1.04 1.17 0.98 0.69 0.52 0.76 0.70 0.50 0.37 0.29 0.23 0.22 0.32 0.47 0.61 0.73 0.81 0.91 1.08 1.25 1.33 1.33 1.42 1.52 1.49 1.46 1.43 1.41 1.47 1.47 1.41 1.33 1.31 1.36 1.45 1.45
0.39 0.40 0.20 0.17 0.20 0.26 0.38 0.42 0.47 0.71 0.61 0.61 0.68 0.83 0.72 0.47 0.40 0.32 0.28 0.31 0.45 0.67 0.88 1.03 1.14 1.24 1.28 1.33 1.41 1.33 1.31 1.37 1.38 1.33 1.25 1.24 1.28 1.33 1.32 1.25 1.26 1.25 1.26 1.18
0.24 0.30 0.19 0.16 0.19 0.20 0.30 0.40 0.55 0.84 0.95 0.98 0.93 0.93 0.81 0.61 0.52 0.54 0.61 0.71 0.75 0.85 1.12 1.40 1.65 1.81 1.64 1.38 1.30 1.29 1.22 1.22 1.31 1.30 1.22 1.17 1.23 1.24 1.23 1.23 1.20 1.20 1.19 1.11
0.17 0.29 0.25 0.22 0.25 0.27 0.33 0.47 0.59 0.77 0.88 1.15 1.38 1.34 1.02 1.00 0.98 1.03 1.12 1.16 1.16 1.26 1.25 1.41 1.60 1.78 1.68 1.38 1.16 1.20 1.24 1.22 1.23 1.23 1.22 1.19 1.15 1.06 1.05 1.08 1.07 1.07 1.06 1.10
0.15 0.26 0.29 0.22 0.24 0.30 0.45 0.56 0.72 1.02 0.95 0.94 1.23 1.34 1.07 1.04 1.06 1.12 1.29 1.35 1.33 1.24 1.16 1.14 1.20 1.27 1.30 1.16 0.98 0.95 1.11 1.19 1.16 1.14 1.16 1.13 1.03 0.96 0.95 0.92 0.87 0.78 0.74 0.76
0.20 0.32 0.43 0.43 0.49 0.50 0.66 0.71 0.60 0.62 0.73 0.84 1.10 1.05 0.70 0.64 0.80 0.96 1.10 1.18 1.11 1.05 1.14 1.11 1.02 0.96 0.99 0.96 0.88 0.84 0.98 1.14 1.20 1.18 1.05 0.95 0.90 0.86 0.86 0.78 0.73 0.70 0.61 0.60
0.19 0.26 0.36 0.53 0.53 0.53 0.71 0.79 0.64 0.57 0.71 0.70 0.69 0.60 0.42 0.46 0.64 0.72 0.76 0.76 0.76 0.80 0.83 0.78 0.73 0.68 0.68 0.71 0.74 0.80 0.91 1.00 1.13 1.25 1.16 1.03 0.94 0.87 0.83 0.77 0.73 0.68 0.64 0.66
0.15 0.16 0.15 0.18 0.20 0.27 0.45 0.56 0.47 0.36 0.35 0.44 0.40 0.38 0.43 0.50 0.60 0.58 0.52 0.50 0.49 0.48 0.44 0.43 0.43 0.42 0.42 0.43 0.43 0.51 0.66 0.81 1.00 1.23 1.23 1.10 1.04 0.97 0.82 0.76 0.75 0.71 0.74 0.72
0.12 0.14 0.12 0.11 0.12 0.16 0.26 0.31 0.25 0.18 0.22 0.32 0.36 0.41 0.44 0.52 0.58 0.54 0.45 0.38 0.32 0.31 0.30 0.30 0.28 0.27 0.24 0.23 0.25 0.26 0.36 0.55 0.71 0.89 0.97 0.95 0.86 0.76 0.72 0.72 0.68 0.64 0.63 0.59
0.12 0.15 0.17 0.12 0.11 0.14 0.22 0.22 0.22 0.24 0.25 0.26 0.36 0.46 0.49 0.61 0.80 0.71 0.53 0.44 0.31 0.25 0.25 0.24 0.24 0.23 0.22 0.22 0.22 0.24 0.30 0.37 0.47 0.61 0.70 0.70 0.65 0.59 0.57 0.59 0.57 0.52 0.48 0.49
0.09 0.17 0.23 0.21 0.24 0.35 0.32 0.24 0.31 0.40 0.33 0.31 0.39 0.46 0.55 0.86 1.06 0.69 0.46 0.41 0.34 0.25 0.23 0.23 0.23 0.21 0.19 0.19 0.19 0.21 0.24 0.27 0.30 0.37 0.43 0.44 0.44 0.44 0.45 0.45 0.44 0.43 0.42 0.41
0.06 0.16 0.27 0.30 0.33 0.52 0.43 0.23 0.34 0.40 0.36 0.28 0.36 0.43 0.44 0.48 0.44 0.27 0.17 0.18 0.21 0.16 0.15 0.14 0.13 0.12 0.10 0.10 0.11 0.13 0.15 0.18 0.18 0.19 0.23 0.24 0.26 0.30 0.35 0.36 0.39 0.47 0.49 0.47
0.07 0.13 0.24 0.27 0.30 0.39 0.35 0.15 0.20 0.29 0.36 0.16 0.17 0.19 0.14 0.10 0.11 0.14 0.13 0.09 0.08 0.07 0.08 0.08 0.07 0.06 0.06 0.07 0.07 0.08 0.10 0.12 0.12 0.13 0.13 0.17 0.19 0.22 0.27 0.32 0.34 0.35 0.36 0.41
0.10 0.14 0.20 0.22 0.23 0.19 0.12 0.10 0.13 0.30 0.33 0.11 0.08 0.06 0.03 0.04 0.04 0.09 0.13 0.09 0.06 0.05 0.06 0.06 0.06 0.06 0.07 0.07 0.07 0.06 0.07 0.09 0.12 0.15 0.16 0.19 0.22 0.23 0.26 0.23 0.19 0.21 0.25 0.27
0.13 0.17 0.17 0.17 0.21 0.16 0.09 0.11 0.15 0.15 0.09 0.05 0.04 0.04 0.03 0.03 0.03 0.05 0.08 0.06 0.05 0.05 0.05 0.06 0.07 0.09 0.07 0.08 0.08 0.08 0.09 0.11 0.13 0.15 0.16 0.17 0.17 0.17 0.18 0.18 0.16 0.15 0.17 0.21
0.14 0.16 0.18 0.18 0.18 0.15 0.12 0.10 0.07 0.05 0.05 0.03 0.03 0.04 0.03 0.03 0.03 0.02 0.04 0.04 0.03 0.04 0.07 0.08 0.10 0.14 0.15 0.11 0.10 0.10 0.12 0.14 0.14 0.15 0.15 0.17 0.17 0.17 0.14 0.13 0.16 0.17 0.17 0.19
0.14 0.12 0.16 0.17 0.13 0.12 0.10 0.07 0.04 0.03 0.03 0.03 0.03 0.03 0.03 0.04 0.04 0.03 0.02 0.04 0.03 0.03 0.07 0.10 0.15 0.18 0.21 0.17 0.13 0.12 0.12 0.13 0.14 0.14 0.15 0.17 0.18 0.19 0.15 0.15 0.15 0.15 0.15 0.17
0.14 0.13 0.14 0.14 0.11 0.10 0.09 0.07 0.05 0.04 0.03 0.02 0.03 0.02 0.02 0.02 0.02 0.02 0.02 0.03 0.03 0.04 0.05 0.09 0.16 0.18 0.17 0.17 0.16 0.15 0.14 0.12 0.12 0.13 0.15 0.16 0.19 0.20 0.17 0.14 0.13 0.14 0.15 0.20
0.11 0.14 0.16 0.15 0.12 0.13 0.11 0.08 0.06 0.06 0.04 0.03 0.03 0.03 0.02 0.02 0.02 0.02 0.02 0.03 0.03 0.04 0.05 0.08 0.10 0.13 0.14 0.15 0.16 0.13 0.13 0.12 0.12 0.14 0.14 0.15 0.14 0.15 0.16 0.17 0.14 0.14 0.15 0.18